Location: Gilevgi
(36.8751°N, 30.0581°E)
Time: 01:51:42
(UTC+00:00)

SMAP - Pass Details

Date: 11 December 2025
Orbit: 681 x 683 km, 98.1° (Epoch: 14 January)

Event Time Altitude Azimuth Distance (km) Brightness Sun altitude
Rises 15:55:34 0° 182° (S) 3,029 6.7 -14.0°
Reaches altitude 10° 15:57:53 10° 189° (S) 2,118 5.9 -14.5°
Maximum altitude 16:02:18 44° 261° (W) 945 4.3 -15.3°
Drops below altitude 10° 16:06:45 10° 333° (NNW) 2,132 5.7 -16.2°
Sets 16:09:06 0° 340° (NNW) 3,052 6.5 -16.6°
